ONEWEB-0120 (47266 NORAD) Tracking and Keplerian Element Data

This shows tracking and keplerian element data for the satellite.

Feedback or suggestion? Click here.




ElementValue
Catalog47266
NameONEWEB-0120
Epoch Orbit516
Epoch Day21.16668981
Epoch Year2021
RAAN27.8393
Inclination87.4506
Eccentricity0.0010275
Argument of Perigee148.8374
Mean Anonmoly285.283
Mean Motion15.05935309
Decay Rate-0.01481278
L11 47266U 20100J 21021.16668981 -.01481278 00000-0 -11153+0 0 9992
L22 47266 87.4506 27.8393 0010275 148.8374 285.2830 15.05935309 5169

Live tracking and technical data element details for ONEWEB-0120 (NORAD 47266). ONEWEB-0120 can be tracked NOW for your location showing map with azimuth and elevation plus other details from your city location.

Track the satellite on the map from your city or location and see movement details for azimuth, elevation, latitude, longitude, range, height, and movement on the map or in text.







IsCatalogInMostPopularTable: catalog: 47266, numindb: 13
Update: records affected: 1



GetName: 47266 ONEWEB-0120

Hit Count: updated at: Sat, 23 Jan 2021 16:14:42 GMT